GFSSW_prec_snow_354.txt.gz
Snowfall_Accumulation
0.0 0.0 0.0 0.0 0.0 0.0 0.0 0.0 0.0 0.0 0.0 0.0 0.0 0.0 0.0 0.0 0.0 0.0 0.0 0.0 0.0 0.0 0.0 0.0 0.0 0.0 0.0 0.0 0.0 0.0 1.0 3.5 1.7 0.6 0.0 0.0 0.0 0.0 0.0 0.0 0.0 0.0 0.0 0.0 0.0
0.0 0.0 0.0 0.0 0.0 0.0 0.0 0.0 0.0 0.0 0.0 0.0 0.0 0.0 0.0 0.0 0.0 0.0 0.0 0.0 0.0 0.0 0.0 0.0 0.0 0.0 0.0 0.0 0.0 0.0 1.4 0.0 0.0 0.0 0.0 0.0 0.0 0.0 0.0 0.0 0.0 0.0 0.0 0.0 0.0
0.0 0.0 0.0 0.0 0.0 0.0 0.0 0.0 0.0 0.0 0.0 0.0 0.0 0.0 0.0 0.0 0.0 0.0 0.0 0.0 0.0 0.0 0.0 0.0 0.0 0.0 0.0 0.0 0.0 0.0 0.7 0.0 0.0 0.0 0.0 0.0 0.0 0.0 0.0 0.1 0.0 0.0 0.0 0.0 0.0
0.0 0.0 0.0 0.0 0.0 0.0 0.0 0.0 0.0 0.0 0.0 0.0 0.0 0.0 0.0 0.0 0.0 0.0 0.0 0.0 0.0 0.0 0.0 0.0 0.0 0.0 0.1 0.3 0.0 0.8 0.0 0.0 0.0 0.0 0.0 0.0 0.0 0.0 0.0 0.0 0.0 0.0 0.0 0.0 0.0
0.0 0.0 0.0 0.0 0.0 0.0 0.0 0.0 0.0 0.0 0.0 0.0 0.0 0.0 0.0 0.0 0.0 0.0 0.0 0.0 0.0 0.0 0.0 0.0 0.0 0.0 0.9 0.5 0.0 0.1 0.0 0.0 0.0 0.0 0.0 0.0 0.0 0.0 0.0 0.0 0.0 0.0 0.0 0.0 0.0
0.0 0.0 0.0 0.0 0.0 0.0 0.0 0.0 0.0 0.0 0.0 0.0 0.0 0.0 0.0 0.1 0.0 0.0 0.0 0.0 0.0 0.0 0.0 0.0 0.0 0.0 0.0 1.1 1.3 0.0 0.0 0.0 0.0 0.0 0.0 0.0 0.0 0.0 0.0 0.0 0.0 0.0 0.0 0.0 0.0
0.0 0.0 0.0 0.0 0.0 0.0 0.0 0.0 0.0 0.0 0.0 0.0 0.0 0.0 0.0 0.0 0.0 0.0 0.0 0.0 0.0 0.0 0.0 0.0 0.0 0.0 0.0 0.9 0.0 0.0 0.6 0.0 0.0 0.0 0.0 0.0 0.3 0.1 0.0 0.0 0.1 0.5 0.0 0.0 0.0
0.0 0.0 0.0 0.0 0.0 0.0 0.0 0.0 0.0 0.0 0.0 0.0 0.0 0.0 0.0 0.0 0.0 0.0 0.0 0.0 0.0 0.0 0.0 0.0 0.0 0.0 0.0 0.0 0.0 0.6 0.0 1.9 0.0 0.0 0.0 0.0 2.0 0.2 0.0 0.0 0.6 0.2 0.0 0.0 0.0
0.0 0.0 0.0 0.0 0.0 0.0 0.0 0.0 0.0 0.0 0.0 0.0 0.0 0.0 0.0 0.0 0.0 0.0 0.0 0.0 0.0 0.0 0.0 0.0 0.0 0.0 0.0 0.7 1.5 0.9 1.8 0.5 0.6 0.0 0.0 0.0 1.8 1.2 0.0 0.3 0.3 0.3 0.5 0.1 0.7
0.0 0.0 0.0 0.0 0.0 0.0 0.0 0.0 0.0 0.0 0.0 0.0 0.0 0.1 0.0 0.0 0.0 0.0 0.0 0.0 0.0 0.0 0.0 0.0 0.0 1.7 0.5 4.0 6.1 0.5 1.2 0.4 0.6 0.0 0.0 0.0 1.0 0.8 0.2 2.4 2.7 1.3 1.3 4.8 6.0
0.0 0.0 0.0 0.0 0.0 0.0 0.0 0.0 0.0 0.0 0.0 0.0 0.0 0.0 0.0 0.0 0.0 0.0 0.0 0.0 0.0 0.0 1.0 0.1 4.1 4.0 3.1 0.4 1.2 0.4 1.2 1.2 0.3 0.9 1.2 1.9 0.7 2.4 1.6 2.1 2.2 0.5 2.4 7.1 6.9
0.0 0.0 0.0 0.0 0.0 0.0 0.0 0.0 0.0 0.0 1.1 0.0 0.0 0.0 0.0 0.0 0.0 0.0 0.0 0.0 0.0 0.9 0.1 3.1 1.4 0.0 0.0 0.1 0.9 1.3 1.0 0.8 0.0 0.0 0.1 1.4 2.0 4.9 2.7 6.2 7.1 4.8 3.2 5.7 4.4
0.0 0.0 0.0 0.0 0.0 0.0 0.0 0.0 0.0 0.0 4.6 0.0 0.0 0.0 0.0 0.0 0.0 0.0 0.0 0.0 0.1 0.8 0.8 1.9 0.0 0.0 0.2 2.6 6.5 1.3 0.4 0.2 0.6 0.0 0.5 1.1 3.9 5.6 3.8 4.0 3.1 1.7 3.3 5.1 5.7
0.0 0.0 0.0 0.0 0.0 0.0 0.0 0.0 0.0 0.0 19.3 1.4 0.0 0.0 0.0 0.0 0.0 0.0 0.0 0.0 2.8 0.7 0.9 0.8 0.0 1.6 1.5 0.7 2.2 6.7 0.0 1.2 0.9 2.1 6.3 0.4 8.8 3.9 2.1 3.8 0.2 0.3 1.4 2.8 3.7
0.0 0.0 0.0 0.0 0.0 0.0 0.0 0.0 0.0 0.0 35.9 0.2 0.5 0.0 0.0 0.0 0.0 0.0 0.0 0.0 6.5 1.3 1.5 2.0 0.6 2.0 2.5 0.3 0.8 3.0 0.0 0.3 1.6 1.8 3.3 3.1 10.8 2.5 1.8 1.6 0.0 0.8 1.4 2.0 4.2
0.0 0.0 0.0 0.0 0.0 0.0 0.0 0.0 0.0 31.8 32.4 0.5 0.2 0.5 0.5 0.1 0.0 0.0 0.0 0.0 0.0 6.0 2.6 0.4 0.0 0.0 1.3 0.0 0.0 0.0 1.7 2.1 2.2 7.9 21.2 4.4 4.1 1.9 2.4 3.3 0.5 1.2 1.4 1.1 2.9
0.0 0.0 0.0 0.0 0.0 0.0 0.0 0.0 45.7 37.5 0.0 0.9 1.3 0.3 1.1 3.6 2.3 0.5 8.7 14.9 14.0 20.1 12.5 2.4 0.3 0.0 0.0 1.7 0.1 2.0 9.4 26.8 27.7 27.2 19.0 2.1 3.5 2.9 2.6 2.3 4.2 6.2 5.8 3.9 4.1
0.0 0.0 0.0 0.0 0.0 0.0 0.0 28.1 56.1 5.1 2.3 0.7 0.3 1.7 2.5 2.3 2.8 2.9 3.3 7.4 9.0 7.8 15.1 8.7 4.6 0.2 0.1 0.3 3.9 4.7 7.9 15.9 13.5 8.1 4.5 0.8 5.8 2.6 1.2 1.6 4.7 6.0 6.7 2.3 2.0
0.0 0.0 0.0 0.0 0.0 0.0 10.6 56.5 20.7 3.5 2.5 1.8 1.2 4.1 3.3 5.2 7.3 4.9 4.6 4.7 5.6 12.4 19.1 16.1 2.0 0.1 0.0 0.0 0.2 4.6 11.9 3.2 4.9 2.8 3.0 2.7 1.0 1.5 0.6 0.6 1.5 2.9 6.3 6.5 3.3
0.0 0.0 0.0 0.0 0.0 0.0 37.3 29.5 2.8 1.4 1.9 3.1 6.4 3.4 6.4 5.5 7.8 14.9 11.6 7.4 7.0 9.7 12.9 14.7 10.2 0.5 1.0 0.0 0.3 2.6 1.9 7.0 13.8 16.2 8.5 2.1 1.0 1.6 1.0 1.0 1.3 2.5 5.6 7.7 4.4
0.0 6.0 0.0 0.0 0.0 5.3 38.6 11.1 1.3 0.8 3.3 7.9 5.4 5.2 2.7 12.1 14.7 18.0 21.6 8.4 6.9 6.7 13.7 16.9 15.8 6.2 1.1 4.4 2.4 2.9 9.1 6.1 10.7 8.9 6.9 3.5 2.2 4.0 4.4 4.4 3.6 4.7 7.2 10.8 7.5
0.0 24.5 0.0 0.0 20.5 30.7 15.4 3.3 1.0 0.9 2.1 3.7 2.2 4.5 3.8 6.0 16.3 12.8 8.8 13.3 5.1 6.1 12.4 11.1 18.2 13.5 3.6 0.6 1.2 0.9 6.4 5.6 12.5 7.0 6.1 4.8 2.2 3.7 4.1 4.5 4.3 5.9 7.0 12.2 11.9
17.2 5.0 0.0 0.0 36.4 18.2 4.7 2.6 5.1 3.4 3.7 5.6 5.0 4.3 2.7 4.9 12.7 7.9 5.8 3.1 6.6 9.9 14.0 14.0 17.2 15.4 12.8 6.5 0.4 5.2 2.1 4.5 5.4 7.3 4.9 6.2 2.1 1.7 2.5 3.2 3.6 7.2 6.6 11.2 11.0
18.8 23.4 15.8 13.4 12.9 7.6 8.1 6.8 6.4 1.8 3.5 2.1 3.3 2.6 5.5 3.8 3.7 6.0 2.6 2.8 0.6 7.5 2.7 7.6 11.0 11.5 9.5 12.6 12.3 10.3 3.4 2.7 5.2 6.9 6.6 3.5 1.5 0.7 0.9 1.9 2.0 4.9 7.9 11.0 12.5
14.1 27.3 0.5 21.1 16.5 7.3 15.1 11.1 4.5 4.7 4.5 2.6 4.6 2.3 8.2 11.0 5.1 4.8 2.9 1.6 3.8 0.8 5.7 12.4 9.5 4.8 0.6 1.6 4.2 5.3 7.0 5.6 6.1 2.5 5.5 2.6 2.8 1.8 2.2 3.0 4.4 5.9 7.9 9.1 9.4
15.9 14.0 6.3 9.9 2.0 7.6 14.4 11.8 3.1 7.0 10.2 5.3 5.5 3.3 4.1 8.3 6.8 8.8 9.3 5.9 9.2 9.5 13.6 16.6 7.2 3.7 2.6 1.2 1.9 2.8 2.0 4.6 4.1 1.3 1.4 1.6 1.9 1.5 1.8 1.3 3.3 6.0 7.3 8.2 8.5
1.1 0.0 15.9 11.3 8.8 13.9 13.6 6.3 5.6 8.8 5.8 4.6 4.3 6.8 4.1 3.6 2.0 1.5 1.8 5.1 7.6 13.3 12.8 14.5 11.1 7.4 7.2 1.6 5.2 6.2 6.4 4.4 2.2 3.4 2.0 2.4 2.4 1.0 0.6 1.6 4.2 6.8 9.0 9.5 9.3

GFSSW_prec_snow_357.txt.gz
Snowfall_Accumulation
0.0 0.0 0.0 0.0 0.0 0.0 0.0 0.0 0.0 0.0 0.0 0.0 0.0 0.0 0.0 0.0 0.0 0.0 0.0 0.0 0.0 0.0 0.0 0.0 0.0 0.0 0.0 0.0 0.0 0.0 1.0 3.5 1.7 0.6 0.0 0.0 0.0 0.0 0.0 0.0 0.0 0.0 0.0 0.0 0.0
0.0 0.0 0.0 0.0 0.0 0.0 0.0 0.0 0.0 0.0 0.0 0.0 0.0 0.0 0.0 0.0 0.0 0.0 0.0 0.0 0.0 0.0 0.0 0.0 0.0 0.0 0.0 0.0 0.0 0.0 1.4 0.0 0.0 0.0 0.0 0.0 0.0 0.0 0.0 0.0 0.0 0.0 0.0 0.0 0.0
0.0 0.0 0.0 0.0 0.0 0.0 0.0 0.0 0.0 0.0 0.0 0.0 0.0 0.0 0.0 0.0 0.0 0.0 0.0 0.0 0.0 0.0 0.0 0.0 0.0 0.0 0.0 0.0 0.0 0.0 0.7 0.0 0.0 0.0 0.0 0.0 0.0 0.0 0.0 0.1 0.0 0.0 0.0 0.0 0.0
0.0 0.0 0.0 0.0 0.0 0.0 0.0 0.0 0.0 0.0 0.0 0.0 0.0 0.0 0.0 0.0 0.0 0.0 0.0 0.0 0.0 0.0 0.0 0.0 0.0 0.0 0.1 0.3 0.0 0.8 0.0 0.0 0.0 0.0 0.0 0.0 0.0 0.0 0.0 0.0 0.0 0.0 0.0 0.0 0.0
0.0 0.0 0.0 0.0 0.0 0.0 0.0 0.0 0.0 0.0 0.0 0.0 0.0 0.0 0.0 0.0 0.0 0.0 0.0 0.0 0.0 0.0 0.0 0.0 0.0 0.0 0.9 0.5 0.0 0.1 0.0 0.0 0.0 0.0 0.0 0.0 0.0 0.0 0.0 0.0 0.0 0.0 0.0 0.0 0.0
0.0 0.0 0.0 0.0 0.0 0.0 0.0 0.0 0.0 0.0 0.0 0.0 0.0 0.0 0.0 0.1 0.0 0.0 0.0 0.0 0.0 0.0 0.0 0.0 0.0 0.0 0.0 1.1 1.3 0.0 0.0 0.0 0.0 0.0 0.0 0.0 0.0 0.0 0.0 0.0 0.0 0.0 0.0 0.0 0.0
0.0 0.0 0.0 0.0 0.0 0.0 0.0 0.0 0.0 0.0 0.0 0.0 0.0 0.0 0.0 0.0 0.0 0.0 0.0 0.0 0.0 0.0 0.0 0.0 0.0 0.0 0.0 0.9 0.0 0.0 0.6 0.0 0.0 0.0 0.0 0.0 0.3 0.1 0.0 0.0 0.1 0.5 0.0 0.0 0.0
0.0 0.0 0.0 0.0 0.0 0.0 0.0 0.0 0.0 0.0 0.0 0.0 0.0 0.0 0.0 0.0 0.0 0.0 0.0 0.0 0.0 0.0 0.0 0.0 0.0 0.0 0.0 0.0 0.0 0.6 0.0 2.4 0.0 0.0 0.0 0.0 2.0 0.2 0.0 0.0 0.6 0.2 0.0 0.0 0.0
0.0 0.0 0.0 0.0 0.0 0.0 0.0 0.0 0.0 0.0 0.0 0.0 0.0 0.0 0.0 0.0 0.0 0.0 0.0 0.0 0.0 0.0 0.0 0.0 0.0 0.0 0.0 0.7 1.8 0.9 1.8 1.0 0.6 0.0 0.0 0.0 1.8 1.2 0.0 0.3 0.3 0.3 0.5 0.1 0.7
0.0 0.0 0.0 0.0 0.0 0.0 0.0 0.0 0.0 0.0 0.0 0.0 0.0 0.1 0.0 0.0 0.0 0.0 0.0 0.0 0.0 0.0 0.0 0.0 0.0 1.9 0.5 4.4 7.0 0.5 1.3 0.4 0.6 0.0 0.0 0.0 1.0 0.8 0.2 2.4 2.7 1.3 1.3 4.8 6.0
0.0 0.0 0.0 0.0 0.0 0.0 0.0 0.0 0.0 0.0 0.0 0.0 0.0 0.0 0.0 0.0 0.0 0.0 0.0 0.0 0.0 0.0 1.1 0.1 4.1 4.2 3.1 0.4 1.2 0.4 2.2 1.2 0.3 0.9 1.2 1.9 0.7 2.4 1.6 2.1 2.2 0.5 2.4 7.1 6.9
0.0 0.0 0.0 0.0 0.0 0.0 0.0 0.0 0.0 0.0 1.1 0.0 0.0 0.0 0.0 0.0 0.0 0.0 0.0 0.0 0.0 0.9 0.1 3.2 2.0 0.0 0.0 0.1 1.1 1.3 1.5 1.3 0.0 0.0 0.1 1.4 2.0 4.9 2.7 6.2 7.1 4.8 3.2 5.7 4.4
0.0 0.0 0.0 0.0 0.0 0.0 0.0 0.0 0.0 0.0 4.6 0.0 0.0 0.0 0.0 0.0 0.0 0.0 0.0 0.0 0.1 0.8 0.8 1.9 0.0 0.0 0.2 2.7 6.5 1.5 0.6 0.5 0.6 0.0 0.5 1.1 3.9 5.6 3.8 4.0 3.1 1.7 3.3 5.1 5.7
0.0 0.0 0.0 0.0 0.0 0.0 0.0 0.0 0.0 0.0 19.3 1.4 0.0 0.0 0.0 0.0 0.0 0.0 0.0 0.0 2.8 0.9 1.0 1.3 0.0 1.7 1.6 0.7 2.2 6.7 0.0 1.2 1.7 2.6 7.1 0.4 8.8 3.9 2.1 3.8 0.2 0.3 1.4 2.8 3.7
0.0 0.0 0.0 0.0 0.0 0.0 0.0 0.0 0.0 0.0 35.9 0.2 0.5 0.0 0.0 0.0 0.0 0.0 0.0 0.0 6.5 1.4 1.5 2.0 1.3 2.1 2.5 0.3 0.8 3.0 0.0 0.3 1.6 3.0 3.7 3.7 10.9 2.6 1.8 1.6 0.0 0.8 1.4 2.0 4.2
0.0 0.0 0.0 0.0 0.0 0.0 0.0 0.0 0.0 31.8 32.4 0.5 0.2 0.5 0.5 0.1 0.0 0.0 0.0 0.0 0.0 6.0 2.6 0.4 0.0 0.0 3.1 0.0 0.0 0.0 1.7 2.1 2.2 11.9 21.8 4.4 4.1 1.9 2.4 3.3 0.5 1.2 1.4 1.1 2.9
0.0 0.0 0.0 0.0 0.0 0.0 0.0 0.0 45.7 37.5 0.0 0.9 1.3 0.3 1.1 3.6 2.3 0.5 8.7 14.9 14.5 20.8 13.3 2.4 0.3 0.0 0.0 2.9 0.1 2.9 9.4 27.3 28.7 30.0 19.9 2.1 3.5 2.9 2.6 2.3 4.2 6.2 5.8 3.9 4.1
0.0 0.0 0.0 0.0 0.0 0.0 0.0 28.1 56.1 5.1 2.3 0.7 0.3 1.7 2.5 2.3 2.8 2.9 3.3 7.4 9.0 7.8 16.0 9.5 4.6 0.2 0.1 0.5 4.3 5.0 7.9 15.9 13.8 8.6 4.5 0.8 5.8 2.6 1.2 1.6 4.7 6.0 6.7 2.3 2.0
0.0 0.0 0.0 0.0 0.0 0.0 10.6 56.5 20.7 3.5 2.5 1.8 1.2 4.1 3.3 5.2 7.3 4.9 4.6 4.7 5.6 12.7 19.7 16.9 2.0 0.1 0.0 0.0 0.2 4.6 11.9 3.2 4.9 2.8 3.0 2.7 1.0 1.5 0.6 0.6 1.5 2.9 6.3 6.5 3.3
0.0 0.0 0.0 0.0 0.0 0.0 37.3 29.5 2.8 1.4 1.9 3.1 6.4 3.4 6.4 5.5 7.8 14.9 11.6 7.4 7.0 9.7 13.5 15.1 10.8 0.5 1.0 0.0 0.3 2.6 1.9 7.0 13.8 16.4 8.7 2.1 1.0 1.6 1.0 1.0 1.3 2.5 5.6 7.7 4.4
0.0 6.0 0.0 0.0 0.0 5.3 38.6 11.1 1.3 0.8 3.3 7.9 5.4 5.2 2.7 12.1 14.7 18.1 21.6 8.4 6.9 6.7 13.7 17.0 15.8 6.2 1.5 4.8 2.4 2.9 9.1 6.1 10.7 8.9 7.4 3.5 2.9 4.0 4.4 4.4 3.6 4.7 7.2 10.8 7.5
0.0 24.5 0.0 0.0 20.5 30.7 15.4 3.3 1.0 0.9 2.1 3.7 2.2 4.5 3.8 6.0 16.3 12.8 8.8 13.3 5.1 6.1 12.5 11.1 18.3 13.5 3.6 0.6 1.2 0.9 6.4 5.6 12.5 7.0 6.1 4.8 2.2 3.7 4.1 4.5 4.3 5.9 7.0 12.2 11.9
17.2 5.0 0.0 0.0 36.4 18.2 4.7 2.6 5.1 3.4 3.7 5.6 5.0 4.3 2.7 4.9 12.7 7.9 5.8 3.1 6.6 9.9 14.0 14.0 17.2 15.4 12.8 6.5 0.4 6.0 2.1 4.5 5.4 7.3 4.9 6.2 2.1 1.7 2.5 3.2 3.6 7.2 6.6 11.2 11.0
18.8 23.4 15.8 13.4 12.9 7.6 8.1 6.8 6.4 1.8 3.5 2.1 3.3 2.6 5.5 3.8 3.7 6.0 2.6 2.8 0.6 7.5 2.7 7.6 11.0 11.6 10.0 12.8 12.3 10.3 3.4 2.7 5.2 6.9 6.6 3.5 1.5 0.7 0.9 1.9 2.0 4.9 7.9 11.0 12.5
14.1 27.3 0.5 21.1 16.5 7.3 15.1 11.1 4.5 4.7 4.5 2.6 4.6 2.3 8.2 11.0 5.1 4.8 2.9 1.6 3.8 0.8 5.7 12.4 9.5 4.8 0.6 1.6 4.2 5.3 7.0 5.6 6.1 2.5 5.5 2.6 2.8 1.8 2.2 3.0 4.4 5.9 7.9 9.1 9.4
15.9 14.0 6.3 9.9 2.0 7.6 14.4 11.8 3.1 7.0 10.2 5.3 5.5 3.3 4.1 8.4 7.0 8.9 9.4 5.9 9.2 9.5 13.6 16.6 7.2 3.7 2.6 1.2 1.9 2.8 2.0 4.6 4.1 1.3 1.4 1.6 1.9 1.5 1.8 1.3 3.3 6.0 7.3 8.2 8.5
1.1 0.0 15.9 11.3 8.8 13.9 13.6 6.3 5.6 8.8 5.8 4.6 4.3 6.8 4.1 3.6 2.0 1.5 1.8 5.2 7.7 13.4 12.8 14.5 11.1 7.4 7.2 1.6 5.2 6.2 6.4 4.4 2.2 3.4 2.0 2.4 2.4 1.0 0.6 1.6 4.2 6.8 9.0 9.5 9.3

GFSSW_prec_snow_360.txt.gz
Snowfall_Accumulation
0.0 0.0 0.0 0.0 0.0 0.0 0.0 0.0 0.0 0.0 0.0 0.0 0.0 0.0 0.0 0.0 0.0 0.0 0.0 0.0 0.0 0.0 0.0 0.0 0.0 0.0 0.0 0.0 0.0 0.0 1.0 3.5 1.7 0.6 0.0 0.0 0.0 0.0 0.0 0.0 0.0 0.0 0.0 0.0 0.0
0.0 0.0 0.0 0.0 0.0 0.0 0.0 0.0 0.0 0.0 0.0 0.0 0.0 0.0 0.0 0.0 0.0 0.0 0.0 0.0 0.0 0.0 0.0 0.0 0.0 0.0 0.0 0.0 0.0 0.0 1.4 0.0 0.0 0.0 0.0 0.0 0.0 0.0 0.0 0.0 0.0 0.0 0.0 0.0 0.0
0.0 0.0 0.0 0.0 0.0 0.0 0.0 0.0 0.0 0.0 0.0 0.0 0.0 0.0 0.0 0.0 0.0 0.0 0.0 0.0 0.0 0.0 0.0 0.0 0.0 0.0 0.0 0.0 0.0 0.0 0.7 0.0 0.0 0.0 0.0 0.0 0.0 0.0 0.0 0.1 0.0 0.0 0.0 0.0 0.0
0.0 0.0 0.0 0.0 0.0 0.0 0.0 0.0 0.0 0.0 0.0 0.0 0.0 0.0 0.0 0.0 0.0 0.0 0.0 0.0 0.0 0.0 0.0 0.0 0.0 0.0 0.1 0.3 0.0 0.8 0.0 0.0 0.0 0.0 0.0 0.0 0.0 0.0 0.0 0.0 0.0 0.0 0.0 0.0 0.0
0.0 0.0 0.0 0.0 0.0 0.0 0.0 0.0 0.0 0.0 0.0 0.0 0.0 0.0 0.0 0.0 0.0 0.0 0.0 0.0 0.0 0.0 0.0 0.0 0.0 0.0 0.9 0.5 0.0 0.1 0.0 0.0 0.0 0.0 0.0 0.0 0.0 0.0 0.0 0.0 0.0 0.0 0.0 0.0 0.0
0.0 0.0 0.0 0.0 0.0 0.0 0.0 0.0 0.0 0.0 0.0 0.0 0.0 0.0 0.0 0.1 0.0 0.0 0.0 0.0 0.0 0.0 0.0 0.0 0.0 0.0 0.0 1.1 1.3 0.0 0.0 0.0 0.0 0.0 0.0 0.0 0.0 0.0 0.0 0.0 0.0 0.0 0.0 0.0 0.0
0.0 0.0 0.0 0.0 0.0 0.0 0.0 0.0 0.0 0.0 0.0 0.0 0.0 0.0 0.0 0.0 0.0 0.0 0.0 0.0 0.0 0.0 0.0 0.0 0.0 0.0 0.0 0.9 0.0 0.0 0.6 0.0 0.0 0.0 0.0 0.0 0.3 0.1 0.0 0.0 0.1 0.5 0.0 0.0 0.0
0.0 0.0 0.0 0.0 0.0 0.0 0.0 0.0 0.0 0.0 0.0 0.0 0.0 0.0 0.0 0.0 0.0 0.0 0.0 0.0 0.0 0.0 0.0 0.0 0.0 0.0 0.0 0.0 0.0 0.6 0.2 2.4 0.0 0.0 0.0 0.0 2.0 0.2 0.0 0.0 0.6 0.2 0.0 0.0 0.0
0.0 0.0 0.0 0.0 0.0 0.0 0.0 0.0 0.0 0.0 0.0 0.0 0.0 0.0 0.0 0.0 0.0 0.0 0.0 0.0 0.0 0.0 0.0 0.0 0.0 0.0 0.0 1.0 2.0 0.9 1.8 1.0 0.6 0.0 0.0 0.0 1.8 1.2 0.0 0.3 0.3 0.3 0.5 0.1 0.7
0.0 0.0 0.0 0.0 0.0 0.0 0.0 0.0 0.0 0.0 0.0 0.0 0.0 0.1 0.0 0.0 0.0 0.0 0.0 0.0 0.0 0.0 0.0 0.0 0.0 1.9 0.6 4.4 7.3 0.5 1.3 0.4 0.6 0.0 0.0 0.0 1.0 0.8 0.2 2.4 2.7 1.3 1.3 4.8 6.0
0.0 0.0 0.0 0.0 0.0 0.0 0.0 0.0 0.0 0.0 0.0 0.0 0.0 0.0 0.0 0.0 0.0 0.0 0.0 0.0 0.0 0.0 1.1 0.1 4.1 4.2 3.1 0.4 1.4 0.4 2.2 1.2 0.7 0.9 1.2 1.9 0.7 2.4 1.6 2.1 2.2 0.5 2.4 7.1 6.9
0.0 0.0 0.0 0.0 0.0 0.0 0.0 0.0 0.0 0.0 1.1 0.0 0.0 0.0 0.0 0.0 0.0 0.0 0.0 0.0 0.0 0.9 0.1 3.2 2.0 0.0 0.0 0.1 1.1 1.3 1.8 1.3 0.3 0.0 0.1 1.4 2.0 4.9 2.7 6.2 7.1 4.8 3.2 5.7 4.4
0.0 0.0 0.0 0.0 0.0 0.0 0.0 0.0 0.0 0.0 4.6 0.0 0.0 0.0 0.0 0.0 0.0 0.0 0.0 0.0 0.1 0.8 0.8 2.1 0.3 0.0 0.2 2.8 6.5 1.5 0.6 0.5 1.2 0.1 0.5 1.1 3.9 5.8 3.8 4.0 3.1 1.7 3.3 5.1 5.7
0.0 0.0 0.0 0.0 0.0 0.0 0.0 0.0 0.0 0.0 19.3 1.4 0.0 0.0 0.0 0.0 0.0 0.0 0.0 0.0 2.8 0.9 1.0 1.3 0.0 1.8 1.6 0.7 2.2 6.7 0.0 1.2 2.6 3.1 7.6 0.4 8.8 3.9 2.1 3.8 0.2 0.3 1.4 2.8 3.7
0.0 0.0 0.0 0.0 0.0 0.0 0.0 0.0 0.0 0.0 35.9 0.2 0.5 0.0 0.0 0.0 0.0 0.0 0.0 0.0 6.5 1.4 1.6 2.0 1.3 2.1 2.9 0.3 0.8 3.0 0.1 0.3 1.6 3.4 4.6 3.7 11.1 2.6 1.8 1.6 0.0 0.8 1.4 2.0 4.2
0.0 0.0 0.0 0.0 0.0 0.0 0.0 0.0 0.0 31.8 32.4 0.5 0.2 0.5 0.5 0.1 0.0 0.0 0.0 0.0 0.0 6.0 2.6 0.4 0.0 0.0 7.7 0.9 0.0 0.0 1.7 2.1 2.2 11.9 21.8 5.9 4.1 1.9 2.4 3.3 0.5 1.2 1.4 1.1 2.9
0.0 0.0 0.0 0.0 0.0 0.0 0.0 0.0 45.7 37.5 0.0 0.9 1.3 0.3 1.1 3.6 2.3 0.5 8.7 14.9 14.7 20.9 13.3 2.4 0.3 0.0 0.0 2.9 0.1 2.9 9.4 28.1 28.7 30.8 19.9 2.7 3.7 2.9 2.6 2.3 4.2 6.2 5.8 3.9 4.1
0.0 0.0 0.0 0.0 0.0 0.0 0.0 28.1 56.1 5.1 2.3 0.7 0.3 1.7 2.5 2.3 2.8 2.9 3.3 7.4 9.0 7.8 16.1 9.7 4.6 0.2 0.1 0.5 4.9 5.6 7.9 16.1 14.1 8.6 4.5 1.3 5.8 2.6 1.2 1.6 4.7 6.0 6.7 2.3 2.0
0.0 0.0 0.0 0.0 0.0 0.0 10.6 56.5 20.7 3.5 2.5 1.8 1.2 4.1 3.3 5.2 7.3 4.9 4.6 4.7 5.6 12.9 20.1 17.1 2.1 0.1 0.0 0.0 0.2 4.6 11.9 3.2 4.9 3.1 3.7 3.0 1.0 1.5 0.6 0.6 1.5 2.9 6.4 6.5 3.3
0.0 0.0 0.0 0.0 0.0 0.0 37.3 29.5 2.8 1.4 1.9 3.1 6.4 3.4 6.4 5.5 7.8 14.9 11.6 7.4 7.0 9.7 13.5 15.5 10.8 0.5 1.0 0.0 0.3 2.6 1.9 7.0 13.8 16.4 8.7 2.1 1.0 1.6 1.0 1.0 1.3 2.5 5.6 7.7 4.4
0.0 6.0 0.0 0.0 0.0 5.3 38.6 11.1 1.3 0.8 3.3 7.9 5.4 5.2 2.7 12.1 14.7 18.2 21.6 8.4 6.9 6.7 13.7 17.0 16.0 6.2 1.5 4.8 2.4 2.9 9.1 6.1 10.7 8.9 7.7 3.5 2.9 4.0 4.4 4.4 3.6 4.7 7.2 10.8 7.5
0.0 24.5 0.0 0.0 20.5 30.7 15.4 3.3 1.0 0.9 2.1 3.7 2.2 4.5 3.8 6.0 16.3 12.8 8.8 13.3 5.1 6.1 12.5 11.1 18.5 13.5 3.6 0.6 1.2 0.9 6.4 5.6 12.5 7.0 6.1 4.8 2.2 3.7 4.1 4.5 4.3 5.9 7.0 12.2 11.9
17.2 5.0 0.0 0.0 36.4 18.2 4.7 2.6 5.1 3.4 3.7 5.6 5.0 4.3 2.7 4.9 12.7 7.9 5.8 3.1 6.6 9.9 14.0 14.0 17.2 15.4 12.8 6.5 0.4 6.8 2.1 4.5 5.4 7.3 4.9 6.2 2.1 1.7 2.5 3.2 3.6 7.2 6.6 11.2 11.0
18.8 23.4 15.8 13.4 12.9 7.6 8.1 6.8 6.4 1.8 3.5 2.1 3.3 2.6 5.5 3.8 3.7 6.0 2.6 2.8 0.6 7.5 2.7 7.6 11.0 11.7 10.2 12.9 12.3 10.5 3.4 2.7 5.2 6.9 6.6 3.5 1.5 0.7 0.9 1.9 2.0 4.9 7.9 11.0 12.5
14.1 27.3 0.5 21.1 16.5 7.3 15.1 11.1 4.5 4.7 4.5 2.6 4.6 2.3 8.2 11.0 5.1 4.8 2.9 1.6 3.8 0.8 5.7 12.4 9.5 4.8 0.6 1.6 4.2 5.3 7.0 5.6 6.1 2.5 5.5 2.6 2.8 1.8 2.2 3.0 4.4 5.9 7.9 9.1 9.4
15.9 14.0 6.3 9.9 2.0 7.6 14.4 11.8 3.1 7.0 10.2 5.3 5.5 3.3 4.1 8.4 7.0 9.0 9.5 5.9 9.2 9.5 13.6 16.6 7.2 3.7 2.6 1.2 1.9 2.8 2.0 4.6 4.1 1.3 1.4 1.6 1.9 1.5 1.8 1.3 3.3 6.0 7.3 8.2 8.5
1.1 0.0 15.9 11.3 8.8 13.9 13.6 6.3 5.6 8.8 5.8 4.6 4.3 6.8 4.1 3.6 2.0 1.5 1.8 5.2 7.8 13.6 12.8 14.5 11.1 7.4 7.2 1.6 5.2 6.2 6.4 4.4 2.2 3.4 2.0 2.4 2.4 1.0 0.6 1.6 4.2 6.8 9.0 9.5 9.3

GFSSW_prec_snow_363.txt.gz
Snowfall_Accumulation
0.0 0.0 0.0 0.0 0.0 0.0 0.0 0.0 0.0 0.0 0.0 0.0 0.0 0.0 0.0 0.0 0.0 0.0 0.0 0.0 0.0 0.0 0.0 0.0 0.0 0.0 0.0 0.0 0.0 0.0 1.0 3.5 1.7 0.6 0.0 0.0 0.0 0.0 0.0 0.0 0.0 0.0 0.0 0.0 0.0
0.0 0.0 0.0 0.0 0.0 0.0 0.0 0.0 0.0 0.0 0.0 0.0 0.0 0.0 0.0 0.0 0.0 0.0 0.0 0.0 0.0 0.0 0.0 0.0 0.0 0.0 0.0 0.0 0.0 0.0 1.4 0.0 0.0 0.0 0.0 0.0 0.0 0.0 0.0 0.0 0.0 0.0 0.0 0.0 0.0
0.0 0.0 0.0 0.0 0.0 0.0 0.0 0.0 0.0 0.0 0.0 0.0 0.0 0.0 0.0 0.0 0.0 0.0 0.0 0.0 0.0 0.0 0.0 0.0 0.0 0.0 0.0 0.0 0.0 0.0 0.7 0.0 0.0 0.0 0.0 0.0 0.0 0.0 0.0 0.1 0.0 0.0 0.0 0.0 0.0
0.0 0.0 0.0 0.0 0.0 0.0 0.0 0.0 0.0 0.0 0.0 0.0 0.0 0.0 0.0 0.0 0.0 0.0 0.0 0.0 0.0 0.0 0.0 0.0 0.0 0.0 0.1 0.3 0.0 0.8 0.0 0.0 0.0 0.0 0.0 0.0 0.0 0.0 0.0 0.0 0.0 0.0 0.0 0.0 0.0
0.0 0.0 0.0 0.0 0.0 0.0 0.0 0.0 0.0 0.0 0.0 0.0 0.0 0.0 0.0 0.0 0.0 0.0 0.0 0.0 0.0 0.0 0.0 0.0 0.0 0.0 0.9 0.5 0.0 0.1 0.0 0.0 0.0 0.0 0.0 0.0 0.0 0.0 0.0 0.0 0.0 0.0 0.0 0.0 0.0
0.0 0.0 0.0 0.0 0.0 0.0 0.0 0.0 0.0 0.0 0.0 0.0 0.0 0.0 0.0 0.1 0.0 0.0 0.0 0.0 0.0 0.0 0.0 0.0 0.0 0.0 0.0 1.1 1.3 0.0 0.0 0.0 0.0 0.0 0.0 0.0 0.0 0.0 0.0 0.0 0.0 0.0 0.0 0.0 0.0
0.0 0.0 0.0 0.0 0.0 0.0 0.0 0.0 0.0 0.0 0.0 0.0 0.0 0.0 0.0 0.0 0.0 0.0 0.0 0.0 0.0 0.0 0.0 0.0 0.0 0.0 0.0 0.9 0.0 0.0 0.6 0.0 0.0 0.0 0.0 0.0 0.3 0.1 0.0 0.0 0.1 0.5 0.0 0.0 0.0
0.0 0.0 0.0 0.0 0.0 0.0 0.0 0.0 0.0 0.0 0.0 0.0 0.0 0.0 0.0 0.0 0.0 0.0 0.0 0.0 0.0 0.0 0.0 0.0 0.0 0.0 0.0 0.0 0.0 0.6 0.2 2.4 0.0 0.0 0.0 0.0 2.0 0.2 0.0 0.0 0.6 0.2 0.0 0.0 0.0
0.0 0.0 0.0 0.0 0.0 0.0 0.0 0.0 0.0 0.0 0.0 0.0 0.0 0.0 0.0 0.0 0.0 0.0 0.0 0.0 0.0 0.0 0.0 0.0 0.0 0.0 0.0 1.0 2.8 1.4 1.9 1.0 0.6 0.0 0.0 0.0 1.8 1.2 0.0 0.3 0.3 0.3 0.5 0.1 0.7
0.0 0.0 0.0 0.0 0.0 0.0 0.0 0.0 0.0 0.0 0.0 0.0 0.0 0.1 0.0 0.0 0.0 0.0 0.0 0.0 0.0 0.0 0.0 0.0 0.0 1.9 0.6 4.6 7.3 0.5 1.3 0.4 0.6 0.0 0.0 0.0 1.0 0.8 0.2 2.4 2.7 1.3 1.3 4.8 6.0
0.0 0.0 0.0 0.0 0.0 0.0 0.0 0.0 0.0 0.0 0.0 0.0 0.0 0.0 0.0 0.0 0.0 0.0 0.0 0.0 0.0 0.0 1.1 0.1 4.1 4.2 3.1 0.4 1.4 0.4 2.2 1.2 0.7 0.9 1.8 2.3 0.7 2.4 1.6 2.1 2.2 0.5 2.4 7.1 6.9
0.0 0.0 0.0 0.0 0.0 0.0 0.0 0.0 0.0 0.0 1.1 0.0 0.0 0.0 0.0 0.0 0.0 0.0 0.0 0.0 0.0 0.9 0.1 3.2 2.0 0.0 0.0 0.1 1.2 1.6 2.1 1.3 0.3 0.0 0.7 1.6 2.0 4.9 2.7 6.2 7.1 4.8 3.2 5.7 4.4
0.0 0.0 0.0 0.0 0.0 0.0 0.0 0.0 0.0 0.0 4.6 0.0 0.0 0.0 0.0 0.0 0.0 0.0 0.0 0.0 0.1 0.8 0.8 2.1 0.3 0.0 0.3 2.8 6.6 1.5 0.6 0.5 1.6 1.8 1.0 1.4 4.1 6.0 3.8 4.0 3.1 1.7 3.3 5.1 5.7
0.0 0.0 0.0 0.0 0.0 0.0 0.0 0.0 0.0 0.0 19.3 1.4 0.0 0.0 0.0 0.0 0.0 0.0 0.0 0.0 2.8 0.9 1.0 1.3 0.0 1.8 1.8 0.8 2.3 6.8 0.0 1.2 2.8 4.1 7.9 0.6 9.1 3.9 2.1 3.8 0.2 0.3 1.4 2.8 3.7
0.0 0.0 0.0 0.0 0.0 0.0 0.0 0.0 0.0 0.0 35.9 0.2 0.5 0.0 0.0 0.0 0.0 0.0 0.0 0.0 6.5 1.4 1.6 2.0 1.3 2.1 4.1 1.8 0.8 3.0 0.1 0.3 1.7 4.3 5.5 3.7 11.2 2.6 1.8 1.7 0.0 0.8 1.4 2.0 4.2
0.0 0.0 0.0 0.0 0.0 0.0 0.0 0.0 0.0 31.8 32.4 0.5 0.2 0.5 0.5 0.1 0.0 0.0 0.0 0.0 0.0 6.0 2.6 0.4 0.0 0.6 8.8 1.9 0.0 0.0 1.8 2.4 2.2 12.1 22.0 5.9 4.1 1.9 2.4 3.3 0.5 1.2 1.4 1.1 2.9
0.0 0.0 0.0 0.0 0.0 0.0 0.0 0.0 45.7 37.5 0.0 0.9 1.3 0.3 1.1 3.6 2.3 0.5 8.7 14.9 14.7 20.9 13.3 2.4 0.3 0.0 0.0 2.9 0.1 3.1 9.4 28.3 28.7 30.8 19.9 3.6 3.7 2.9 2.6 2.3 4.2 6.2 5.8 3.9 4.1
0.0 0.0 0.0 0.0 0.0 0.0 0.0 28.1 56.1 5.1 2.3 0.7 0.3 1.7 2.5 2.3 2.8 2.9 3.3 7.4 9.0 7.8 16.2 9.8 4.6 0.2 0.1 1.1 5.4 5.6 8.0 16.3 14.1 8.6 4.6 2.5 6.5 2.7 1.2 1.6 4.7 6.0 6.7 2.3 2.0
0.0 0.0 0.0 0.0 0.0 0.0 10.6 56.5 20.7 3.5 2.5 1.8 1.2 4.1 3.3 5.2 7.3 4.9 4.6 4.7 5.6 12.9 20.4 17.3 2.1 0.1 0.0 0.0 0.2 4.6 11.9 3.2 5.0 3.6 3.7 4.7 1.5 1.5 0.6 0.6 1.5 3.1 6.4 6.5 3.3
0.0 0.0 0.0 0.0 0.0 0.0 37.3 29.5 2.8 1.4 1.9 3.1 6.4 3.4 6.4 5.5 7.8 14.9 11.6 7.4 7.0 9.7 13.5 15.8 10.8 0.5 1.0 0.0 0.3 2.6 1.9 7.0 13.8 16.7 9.3 3.0 1.1 1.6 1.0 1.0 1.3 2.5 5.8 7.9 4.4
0.0 6.0 0.0 0.0 0.0 5.3 38.6 11.1 1.3 0.8 3.3 7.9 5.4 5.2 2.7 12.1 14.7 18.2 21.6 8.4 6.9 6.7 13.7 17.0 16.2 6.2 1.5 4.8 2.5 2.9 9.1 6.1 10.7 8.9 7.7 3.5 2.9 4.0 4.4 4.4 3.6 4.7 7.2 11.1 8.1
0.0 24.5 0.0 0.0 20.5 30.7 15.4 3.3 1.0 0.9 2.1 3.7 2.2 4.5 3.8 6.0 16.3 12.8 8.8 13.3 5.1 6.1 12.5 11.1 18.6 13.5 3.6 0.6 1.2 0.9 6.4 5.6 12.5 7.0 6.1 4.8 2.2 3.7 4.1 4.5 4.3 5.9 7.0 12.3 12.2
17.2 5.0 0.0 0.0 36.4 18.2 4.7 2.6 5.1 3.4 3.7 5.6 5.0 4.3 2.7 4.9 12.7 7.9 5.8 3.1 6.6 9.9 14.0 14.0 17.2 15.4 12.8 6.5 0.4 6.8 2.1 4.5 5.4 7.3 4.9 6.2 2.1 1.7 2.5 3.2 3.6 7.2 6.6 11.2 11.0
18.8 23.4 15.8 13.4 12.9 7.6 8.1 6.8 6.4 1.8 3.5 2.1 3.3 2.6 5.5 3.8 3.7 6.0 2.6 2.8 0.6 7.5 2.7 7.6 11.1 11.8 10.4 13.0 12.5 10.9 3.5 2.7 5.2 6.9 6.6 3.5 1.5 0.7 0.9 1.9 2.0 4.9 7.9 11.0 12.5
14.1 27.3 0.5 21.1 16.5 7.3 15.1 11.1 4.5 4.7 4.5 2.6 4.6 2.3 8.2 11.0 5.1 4.8 2.9 1.6 3.8 0.8 5.7 12.4 9.5 4.8 0.6 1.6 4.2 5.4 7.1 5.6 6.1 2.5 5.5 2.6 2.8 1.8 2.2 3.0 4.4 5.9 7.9 9.1 9.4
15.9 14.0 6.3 9.9 2.0 7.6 14.4 11.8 3.1 7.0 10.2 5.3 5.5 3.3 4.1 8.4 7.0 9.0 9.6 5.9 9.2 9.5 13.6 16.6 7.2 3.7 2.6 1.2 1.9 2.8 2.0 4.6 4.1 1.3 1.4 1.6 1.9 1.5 1.8 1.3 3.3 6.0 7.3 8.2 8.5
1.1 0.0 15.9 11.3 8.8 13.9 13.6 6.3 5.6 8.8 5.8 4.6 4.3 6.8 4.1 3.6 2.0 1.5 1.8 5.2 7.8 13.7 12.8 14.5 11.1 7.4 7.2 1.6 5.2 6.2 6.4 4.4 2.2 3.4 2.0 2.4 2.4 1.0 0.6 1.6 4.2 6.8 9.0 9.5 9.3